| time (UTC) | temp C | wind direction | speed KPH | gust KPH | rain 1hr cm | rain 24hr cm | rain mn cm | humidity % | barometer mb |
| 20260507160051 | 16 | 55 | 1.6 | 6.4 | 0.00 | 0.00 | 0.00 | 91 | 1015.8 |
| 20260507154519 | 16 | 55 | 1.6 | 6.4 | 0.00 | 0.00 | 0.00 | 93 | 1015.8 |
| 20260507153010 | 15 | 55 | 1.6 | 4.8 | 0.00 | 0.00 | 0.00 | 93 | 1015.8 |
| 20260507151511 | 15 | 55 | 1.6 | 4.8 | 0.00 | 0.00 | 0.00 | 94 | 1015.8 |
| 20260507150010 | 15 | 55 | 1.6 | 8.0 | 0.00 | 0.00 | 0.00 | 93 | 1015.7 |
| 20260507144514 | 15 | 55 | 3.2 | 8.0 | 0.00 | 0.00 | 0.00 | 93 | 1015.6 |
| 20260507143013 | 15 | 55 | 3.2 | 8.0 | 0.00 | 0.00 | 0.00 | 93 | 1015.5 |
| 20260507141516 | 14 | 55 | 0.0 | 0.0 | 0.00 | 0.00 | 0.00 | 93 | 1015.4 |
| 20260507140010 | 14 | 55 | 0.0 | 0.0 | 0.00 | 0.00 | 0.00 | 93 | 1015.3 |
| 20260507134510 | 13 | 55 | 0.0 | 0.0 | 0.00 | 0.00 | 0.00 | 93 | 1015.2 |
| 20260507133012 | 13 | 55 | 0.0 | 0.0 | 0.00 | 0.00 | 0.00 | 93 | 1015.1 |
| 20260507131510 | 13 | 55 | 0.0 | 0.0 | 0.00 | 0.00 | 0.00 | 93 | 1015.1 |
| 20260507130022 | 13 | 55 | 0.0 | 0.0 | 0.00 | 0.00 | 0.00 | 93 | 1015.1 |
| 20260507124515 | 13 | 55 | 0.0 | 0.0 | 0.00 | 0.00 | 0.00 | 92 | 1014.9 |
| 20260507123010 | 13 | 55 | 0.0 | 0.0 | 0.00 | 0.00 | 0.00 | 92 | 1014.8 |
| 20260507121510 | 12 | 55 | 0.0 | 0.0 | 0.00 | 0.00 | 0.00 | 92 | 1014.8 |
| 20260507120010 | 12 | 55 | 0.0 | 0.0 | 0.00 | 0.00 | 0.00 | 92 | 1014.8 |
| 20260507114510 | 12 | 55 | 0.0 | 0.0 | 0.00 | 0.00 | 0.00 | 92 | 1014.8 |
| 20260507113014 | 12 | 55 | 0.0 | 0.0 | 0.00 | 0.00 | 0.00 | 92 | 1014.8 |
| 20260507111515 | 12 | 55 | 0.0 | 0.0 | 0.00 | 0.00 | 0.00 | 92 | 1014.9 |
| 20260507110024 | 12 | 55 | 0.0 | 0.0 | 0.00 | 0.00 | 0.00 | 91 | 1015.0 |
| 20260507104510 | 12 | 55 | 0.0 | 0.0 | 0.00 | 0.00 | 0.00 | 91 | 1015.0 |
| 20260507103010 | 12 | 55 | 0.0 | 0.0 | 0.00 | 0.00 | 0.00 | 91 | 1015.1 |
| 20260507101510 | 12 | 55 | 0.0 | 0.0 | 0.00 | 0.00 | 0.00 | 91 | 1015.2 |
| 20260507100018 | 12 | 55 | 0.0 | 0.0 | 0.00 | 0.00 | 0.00 | 91 | 1015.2 |
| 20260507094510 | 12 | 55 | 0.0 | 0.0 | 0.00 | 0.00 | 0.00 | 91 | 1015.4 |
| 20260507093022 | 12 | 55 | 0.0 | 0.0 | 0.00 | 0.00 | 0.00 | 90 | 1015.5 |
| 20260507091515 | 12 | 55 | 0.0 | 0.0 | 0.00 | 0.00 | 0.00 | 90 | 1015.5 |
| 20260507084518 | 13 | 55 | 0.0 | 0.0 | 0.00 | 0.00 | 0.00 | 90 | 1015.8 |
| 20260507083012 | 13 | 55 | 0.0 | 0.0 | 0.00 | 0.00 | 0.00 | 90 | 1015.8 |
| 20260507081512 | 13 | 55 | 0.0 | 0.0 | 0.00 | 0.00 | 0.00 | 89 | 1016.1 |
| 20260507080011 | 13 | 55 | 0.0 | 0.0 | 0.00 | 0.00 | 0.00 | 89 | 1016.1 |
| 20260507074511 | 13 | 55 | 0.0 | 0.0 | 0.00 | 0.00 | 0.00 | 89 | 1016.1 |
| 20260507073012 | 13 | 55 | 0.0 | 1.6 | 0.00 | 0.00 | 0.00 | 89 | 1016.2 |
| 20260507071512 | 13 | 55 | 0.0 | 0.0 | 0.00 | 0.00 | 0.00 | 89 | 1016.3 |
| 20260507070015 | 13 | 55 | 0.0 | 0.0 | 0.00 | 0.00 | 0.00 | 88 | 1016.3 |
| 20260507064511 | 13 | 55 | 0.0 | 1.6 | 0.00 | 0.00 | 0.00 | 88 | 1016.4 |
| 20260507063024 | 14 | 55 | 0.0 | 1.6 | 0.00 | 0.00 | 0.00 | 88 | 1016.5 |
| 20260507061512 | 14 | 55 | 0.0 | 1.6 | 0.00 | 0.00 | 0.00 | 87 | 1016.4 |
| 20260507060020 | 14 | 55 | 0.0 | 0.0 | 0.00 | 0.00 | 0.00 | 87 | 1016.5 |
| 20260507054512 | 14 | 55 | 0.0 | 1.6 | 0.00 | 0.00 | 0.00 | 86 | 1016.4 |
| 20260507053011 | 14 | 55 | 0.0 | 1.6 | 0.00 | 0.00 | 0.00 | 86 | 1016.3 |
| 20260507051512 | 14 | 55 | 0.0 | 0.0 | 0.00 | 0.00 | 0.00 | 86 | 1016.4 |
| 20260507050012 | 15 | 55 | 0.0 | 0.0 | 0.00 | 0.00 | 0.00 | 85 | 1016.4 |
| 20260507044515 | 15 | 55 | 0.0 | 0.0 | 0.00 | 0.00 | 0.00 | 85 | 1016.4 |
| 20260507043012 | 15 | 55 | 0.0 | 1.6 | 0.00 | 0.00 | 0.00 | 84 | 1016.2 |
| 20260507041511 | 15 | 55 | 0.0 | 1.6 | 0.00 | 0.00 | 0.00 | 83 | 1016.1 |
| 20260507040010 | 15 | 55 | 0.0 | 1.6 | 0.00 | 0.00 | 0.00 | 83 | 1016.1 |
| 20260507034527 | 15 | 55 | 0.0 | 0.0 | 0.00 | 0.00 | 0.00 | 82 | 1015.9 |
| 20260507033011 | 16 | 55 | 0.0 | 1.6 | 0.00 | 0.00 | 0.00 | 81 | 1015.8 |
| 20260507031513 | 16 | 55 | 0.0 | 1.6 | 0.00 | 0.00 | 0.00 | 80 | 1015.7 |
| 20260507030013 | 16 | 55 | 0.0 | 1.6 | 0.00 | 0.00 | 0.00 | 79 | 1015.6 |
| 20260507024512 | 17 | 55 | 0.0 | 3.2 | 0.00 | 0.00 | 0.00 | 78 | 1015.4 |
| 20260507023016 | 17 | 55 | 0.0 | 3.2 | 0.00 | 0.00 | 0.00 | 77 | 1015.3 |
| 20260507021512 | 17 | 55 | 1.6 | 6.4 | 0.00 | 0.00 | 0.00 | 76 | 1015.3 |
| 20260507020025 | 18 | 55 | 1.6 | 8.0 | 0.00 | 0.00 | 0.00 | 75 | 1015.1 |
| 20260507014511 | 18 | 55 | 1.6 | 9.7 | 0.00 | 0.00 | 0.00 | 74 | 1015.1 |
| 20260507013019 | 19 | 55 | 1.6 | 3.2 | 0.00 | 0.00 | 0.00 | 73 | 1015.1 |
| 20260507011512 | 20 | 55 | 3.2 | 8.0 | 0.00 | 0.00 | 0.00 | 72 | 1015.1 |
| 20260507010012 | 20 | 55 | 1.6 | 11.3 | 0.00 | 0.00 | 0.00 | 71 | 1015.1 |
| 20260507004511 | 21 | 55 | 6.4 | 11.3 | 0.00 | 0.00 | 0.00 | 68 | 1015.1 |
| 20260507003012 | 21 | 55 | 1.6 | 9.7 | 0.00 | 0.00 | 0.00 | 68 | 1015.0 |
| 20260507001511 | 21 | 55 | 4.8 | 12.9 | 0.00 | 0.00 | 0.00 | 67 | 1014.8 |
| 20260507000015 | 22 | 55 | 4.8 | 11.3 | 0.00 | 0.00 | 0.00 | 67 | 1014.8 |
| 20260506234518 | 23 | 55 | 3.2 | 9.7 | 0.00 | 0.00 | 0.00 | 62 | 1014.8 |
| 20260506233014 | 24 | 55 | 6.4 | 12.9 | 0.00 | 0.00 | 0.00 | 60 | 1014.8 |
| 20260506231512 | 25 | 55 | 1.6 | 12.9 | 0.00 | 0.00 | 0.00 | 59 | 1014.8 |
| 20260506230011 | 23 | 55 | 3.2 | 16.1 | 0.00 | 0.00 | 0.00 | 61 | 1014.9 |
| 20260506224511 | 25 | 55 | 3.2 | 9.7 | 0.00 | 0.00 | 0.00 | 59 | 1015.1 |
| 20260506223011 | 25 | 55 | 3.2 | 16.1 | 0.00 | 0.00 | 0.00 | 58 | 1015.2 |
| 20260506221511 | 25 | 55 | 3.2 | 11.3 | 0.00 | 0.00 | 0.00 | 57 | 1015.2 |
| 20260506220021 | 26 | 55 | 6.4 | 16.1 | 0.00 | 0.00 | 0.00 | 59 | 1015.4 |
| 20260506214511 | 26 | 55 | 3.2 | 14.5 | 0.00 | 0.00 | 0.00 | 58 | 1015.5 |
| 20260506213010 | 26 | 55 | 4.8 | 11.3 | 0.00 | 0.00 | 0.00 | 57 | 1015.6 |
| 20260506211516 | 25 | 55 | 4.8 | 17.7 | 0.00 | 0.00 | 0.00 | 60 | 1015.6 |
| 20260506210021 | 26 | 55 | 6.4 | 12.9 | 0.00 | 0.00 | 0.00 | 56 | 1015.7 |
| 20260506204511 | 25 | 55 | 4.8 | 17.7 | 0.00 | 0.00 | 0.00 | 60 | 1015.8 |
| 20260506203010 | 25 | 55 | 4.8 | 12.9 | 0.00 | 0.00 | 0.00 | 61 | 1016.0 |
| 20260506201510 | 25 | 55 | 6.4 | 11.3 | 0.00 | 0.00 | 0.00 | 60 | 1016.0 |
| 20260506200027 | 23 | 56 | 3.2 | 12.9 | 0.00 | 0.00 | 0.00 | 59 | 1016.1 |
| 20260506194511 | 25 | 55 | 4.8 | 11.3 | 0.00 | 0.00 | 0.00 | 57 | 1016.3 |
| 20260506193010 | 23 | 55 | 4.8 | 12.9 | 0.00 | 0.00 | 0.00 | 60 | 1016.4 |
| 20260506191510 | 22 | 55 | 3.2 | 12.9 | 0.00 | 0.00 | 0.00 | 65 | 1016.5 |
| 20260506190011 | 23 | 55 | 3.2 | 12.9 | 0.00 | 0.00 | 0.00 | 65 | 1016.5 |
| 20260506184510 | 24 | 55 | 3.2 | 11.3 | 0.00 | 0.00 | 0.00 | 61 | 1016.7 |
| 20260506183010 | 23 | 55 | 3.2 | 11.3 | 0.00 | 0.00 | 0.00 | 63 | 1016.8 |
| 20260506181516 | 22 | 55 | 4.8 | 11.3 | 0.00 | 0.00 | 0.00 | 66 | 1016.8 |
| 20260506180016 | 22 | 55 | 1.6 | 11.3 | 0.00 | 0.00 | 0.00 | 67 | 1017.0 |
| 20260506174511 | 21 | 55 | 6.4 | 14.5 | 0.00 | 0.00 | 0.00 | 67 | 1017.1 |
| 20260506173010 | 21 | 55 | 6.4 | 12.9 | 0.00 | 0.00 | 0.00 | 66 | 1017.2 |
| 20260506171510 | 21 | 55 | 3.2 | 9.7 | 0.00 | 0.00 | 0.00 | 66 | 1017.3 |
| 20260506170011 | 20 | 55 | 1.6 | 8.0 | 0.00 | 0.00 | 0.00 | 67 | 1017.4 |
| 20260506164514 | 20 | 55 | 1.6 | 9.7 | 0.00 | 0.00 | 0.00 | 69 | 1017.4 |
| 20260506163011 | 19 | 55 | 0.0 | 8.0 | 0.00 | 0.00 | 0.00 | 72 | 1017.4 |